Location: Krakow
(50.0830°N, 19.9170°E)
Time: 10:02:23
(UTC+01:00)

Transit 2A - Pass Details

Date: 15 February 2023
Orbit: 591 x 964 km, 66.7° (Epoch: 21 March)

Event Time Altitude Azimuth Distance (km) Brightness Sun altitude
Rises 17:24:10 0° 289° (WNW) 3,265 10.3 -4.9°
Reaches altitude 10° 17:27:27 10° 311° (NW) 2,417 9.1 -5.4°
Maximum altitude 17:30:57 17° 350° (N) 2,068 8.2 -5.9°
Drops below altitude 10° 17:34:38 10° 28° (NNE) 2,569 8.3 -6.5°
Enters shadow 17:37:27 - 45° (NE) 3,319 8.8 -6.9°
Sets 17:38:17 0° 49° (NE) 3,572 - -7.1°
